CMP839 MROC-MPTO

Flight info

Callsign CMP839
Flight time 0h 52m
Altitude 31000
Route TEJAR4M LIO UA317 BUFEO DCT BITOR VUMAN2
Aircraft B738/M-SDE2E3FGHIRWXY/LB1

Departure

Time 2026-04-29 23:44
Airport Juan Santamaría International Airport (MROC)

Arrival

Time 2026-04-30 00:36
Airport Tocumen International Airport (MPTO)
Time Latitude Longitude Altitude Speed Heading
2026-04-29 23:24 9.99818 -84.20205 3017 ft 0 kts 339°
2026-04-29 23:37 9.99804 -84.20199 3016 ft 2 kts 337°
2026-04-29 23:37 9.99789 -84.20192 3020 ft 2 kts 335°
2026-04-29 23:38 9.99774 -84.20185 3018 ft 2 kts 340°
2026-04-29 23:38 9.99758 -84.20186 3021 ft 2 kts 28°
2026-04-29 23:38 9.99745 -84.20196 3017 ft 2 kts 56°
2026-04-29 23:38 9.99737 -84.20211 3013 ft 2 kts 67°
2026-04-29 23:39 9.99735 -84.20217 3013 ft 0 kts 69°
2026-04-29 23:41 9.99739 -84.20206 3013 ft 3 kts 66°
2026-04-29 23:41 9.99747 -84.20189 3019 ft 3 kts 68°
2026-04-29 23:41 9.99753 -84.20172 3015 ft 3 kts 70°
2026-04-29 23:42 9.99762 -84.20147 3014 ft 5 kts 69°
2026-04-29 23:42 9.99773 -84.20119 3017 ft 0 kts 69°
2026-04-29 23:42 9.99784 -84.20088 3016 ft 9 kts 69°
2026-04-29 23:42 9.99790 -84.20015 3018 ft 13 kts 128°
2026-04-29 23:43 9.99723 -84.20016 3012 ft 7 kts 218°
2026-04-29 23:43 9.99697 -84.20069 3011 ft 21 kts 249°
2026-04-29 23:43 9.99550 -84.20461 3009 ft 98 kts 248°
2026-04-29 23:43 9.99220 -84.21339 3015 ft 164 kts 249°
2026-04-29 23:44 9.98806 -84.22445 3829 ft 165 kts 249°
2026-04-29 23:44 9.98357 -84.23576 4483 ft 185 kts 249°
2026-04-29 23:44 9.97841 -84.24861 4967 ft 211 kts 249°
2026-04-29 23:44 9.96997 -84.26161 5169 ft 235 kts 220°
2026-04-29 23:45 9.95451 -84.26825 5388 ft 254 kts 183°
2026-04-29 23:45 9.93669 -84.26710 5877 ft 259 kts 171°
2026-04-29 23:45 9.91811 -84.26433 6170 ft 280 kts 170°
2026-04-29 23:45 9.89835 -84.26137 6743 ft 291 kts 169°
2026-04-29 23:46 9.87971 -84.25503 7604 ft 285 kts 146°
2026-04-29 23:46 9.86342 -84.24356 8416 ft 287 kts 142°
2026-04-29 23:46 9.84717 -84.23162 9206 ft 290 kts 143°
2026-04-29 23:46 9.83074 -84.21966 9747 ft 291 kts 143°
2026-04-29 23:47 9.81492 -84.20679 9960 ft 292 kts 129°
2026-04-29 23:47 9.80591 -84.18916 10381 ft 276 kts 104°
2026-04-29 23:47 9.80375 -84.16968 10983 ft 282 kts 87°
2026-04-29 23:47 9.80508 -84.14964 11621 ft 288 kts 85°
2026-04-29 23:48 9.80689 -84.12915 12112 ft 300 kts 85°
2026-04-29 23:48 9.80884 -84.10727 12268 ft 323 kts 85°
2026-04-29 23:48 9.81085 -84.08376 12429 ft 345 kts 85°
2026-04-29 23:48 9.81288 -84.05884 12603 ft 363 kts 85°
2026-04-29 23:49 9.81492 -84.03297 13000 ft 373 kts 85°
2026-04-29 23:49 9.81695 -84.00663 13588 ft 376 kts 85°
2026-04-29 23:49 9.81899 -83.98007 14134 ft 379 kts 85°
2026-04-29 23:49 9.82105 -83.95329 14641 ft 383 kts 85°
2026-04-29 23:50 9.82417 -83.92628 15148 ft 386 kts 82°
2026-04-29 23:50 9.82828 -83.89928 15657 ft 389 kts 81°
2026-04-29 23:50 9.83728 -83.84465 16642 ft 396 kts 81°
2026-04-29 23:51 9.84179 -83.81698 17137 ft 399 kts 81°
2026-04-29 23:51 9.84624 -83.78911 17624 ft 402 kts 81°
2026-04-29 23:51 9.85061 -83.76135 18085 ft 405 kts 81°
2026-04-29 23:51 9.85502 -83.73298 18483 ft 409 kts 81°
2026-04-29 23:52 9.85945 -83.70431 18848 ft 413 kts 81°
2026-04-29 23:52 9.86391 -83.67535 19188 ft 418 kts 81°
2026-04-29 23:52 9.86840 -83.64612 19547 ft 422 kts 81°
2026-04-29 23:52 9.87293 -83.61667 19972 ft 423 kts 82°
2026-04-29 23:53 9.87747 -83.58708 20368 ft 426 kts 82°
2026-04-29 23:53 9.88203 -83.55735 20734 ft 429 kts 81°
2026-04-29 23:53 9.88664 -83.52732 21087 ft 432 kts 82°
2026-04-29 23:53 9.89128 -83.49708 21435 ft 436 kts 82°
2026-04-29 23:54 9.89595 -83.46662 21756 ft 439 kts 82°
2026-04-29 23:54 9.90066 -83.43586 22087 ft 442 kts 82°
2026-04-29 23:54 9.90540 -83.40488 22435 ft 445 kts 82°
2026-04-29 23:54 9.91017 -83.37373 22749 ft 448 kts 82°
2026-04-29 23:55 9.91490 -83.34278 23035 ft 452 kts 82°
2026-04-29 23:55 9.91979 -83.31076 23340 ft 455 kts 82°
2026-04-29 23:55 9.92458 -83.27940 23614 ft 457 kts 82°
2026-04-29 23:55 9.92944 -83.24750 23878 ft 459 kts 82°
2026-04-29 23:56 9.93434 -83.21541 24127 ft 461 kts 82°
2026-04-29 23:56 9.93925 -83.18317 24392 ft 463 kts 82°
2026-04-29 23:56 9.94418 -83.15080 24673 ft 465 kts 82°
2026-04-29 23:56 9.94912 -83.11831 24925 ft 467 kts 83°
2026-04-29 23:57 9.95409 -83.08565 25175 ft 469 kts 83°
2026-04-29 23:57 9.95795 -83.05278 25424 ft 470 kts 90°
2026-04-29 23:57 9.95692 -83.01965 25671 ft 469 kts 98°
2026-04-29 23:57 9.95127 -82.98724 25925 ft 467 kts 108°
2026-04-29 23:58 9.94166 -82.95632 26192 ft 466 kts 111°
2026-04-29 23:58 9.93123 -82.92513 26438 ft 468 kts 112°
2026-04-29 23:58 9.92068 -82.89386 26680 ft 469 kts 112°
2026-04-29 23:58 9.91019 -82.86241 26922 ft 471 kts 112°
2026-04-29 23:59 9.89983 -82.83086 27161 ft 472 kts 112°
2026-04-29 23:59 9.88954 -82.79915 27399 ft 474 kts 111°
2026-04-29 23:59 9.87929 -82.76738 27638 ft 475 kts 112°
2026-04-29 23:59 9.86901 -82.73543 27882 ft 476 kts 112°
2026-04-30 00:00 9.85875 -82.70353 28209 ft 475 kts 112°
2026-04-30 00:00 9.84852 -82.67174 28578 ft 473 kts 112°
2026-04-30 00:00 9.83832 -82.64011 28934 ft 471 kts 112°
2026-04-30 00:00 9.82813 -82.60856 29254 ft 471 kts 112°
2026-04-30 00:01 9.81793 -82.57700 29565 ft 470 kts 113°
2026-04-30 00:01 9.80757 -82.54558 29918 ft 469 kts 114°
2026-04-30 00:01 9.79689 -82.51444 30220 ft 467 kts 114°
2026-04-30 00:01 9.78606 -82.48344 30508 ft 466 kts 114°
2026-04-30 00:02 9.77520 -82.45247 30783 ft 466 kts 114°
2026-04-30 00:02 9.75345 -82.39037 30873 ft 468 kts 114°
2026-04-30 00:03 9.73192 -82.32843 30876 ft 464 kts 114°
2026-04-30 00:03 9.71054 -82.26680 30879 ft 462 kts 114°
2026-04-30 00:04 9.68937 -82.20580 30878 ft 461 kts 114°
2026-04-30 00:04 9.66808 -82.14455 30869 ft 461 kts 114°
2026-04-30 00:05 9.64674 -82.08318 30876 ft 461 kts 114°
2026-04-30 00:05 9.62539 -82.02181 30878 ft 462 kts 114°
2026-04-30 00:06 9.60397 -81.96030 30872 ft 463 kts 114°
2026-04-30 00:06 9.58251 -81.89868 30871 ft 464 kts 114°
2026-04-30 00:07 9.56101 -81.83698 30872 ft 465 kts 114°
2026-04-30 00:07 9.53947 -81.77522 30873 ft 465 kts 114°
2026-04-30 00:08 9.51789 -81.71339 30873 ft 465 kts 114°
2026-04-30 00:08 9.49633 -81.65163 30870 ft 465 kts 114°
2026-04-30 00:09 9.47476 -81.58989 30871 ft 465 kts 114°
2026-04-30 00:09 9.45333 -81.52859 30875 ft 464 kts 114°
2026-04-30 00:10 9.43178 -81.46700 30874 ft 464 kts 114°
2026-04-30 00:10 9.41030 -81.40559 30860 ft 457 kts 114°
2026-04-30 00:11 9.38930 -81.34556 30868 ft 450 kts 114°
2026-04-30 00:11 9.36828 -81.28568 30639 ft 453 kts 114°
2026-04-30 00:11 9.35791 -81.25611 30281 ft 448 kts 114°
2026-04-30 00:12 9.34740 -81.22612 29836 ft 444 kts 114°
2026-04-30 00:12 9.33712 -81.19679 29348 ft 440 kts 114°
2026-04-30 00:12 9.32703 -81.16803 28863 ft 437 kts 114°
2026-04-30 00:12 9.31689 -81.13916 28401 ft 433 kts 114°
2026-04-30 00:13 9.30684 -81.11054 27935 ft 430 kts 113°
2026-04-30 00:13 9.29688 -81.08218 27476 ft 426 kts 113°
2026-04-30 00:13 9.29031 -81.06347 27183 ft 424 kts 113°
2026-04-30 00:13 9.28045 -81.03543 26736 ft 421 kts 113°
2026-04-30 00:14 9.27067 -81.00762 26292 ft 419 kts 112°
2026-04-30 00:14 9.26100 -80.97984 25803 ft 418 kts 112°
2026-04-30 00:14 9.25154 -80.95206 25337 ft 416 kts 111°
2026-04-30 00:14 9.24219 -80.92433 24877 ft 415 kts 111°
2026-04-30 00:15 9.23288 -80.89670 24436 ft 414 kts 111°
2026-04-30 00:15 9.22360 -80.86917 23983 ft 412 kts 111°
2026-04-30 00:15 9.21432 -80.84172 23541 ft 411 kts 110°
2026-04-30 00:15 9.20506 -80.81436 23027 ft 410 kts 110°
2026-04-30 00:16 9.19584 -80.78714 22563 ft 407 kts 110°
2026-04-30 00:16 9.18669 -80.76018 22119 ft 404 kts 110°
2026-04-30 00:16 9.17761 -80.73341 21686 ft 401 kts 110°
2026-04-30 00:16 9.16860 -80.70685 21253 ft 398 kts 110°
2026-04-30 00:17 9.15965 -80.68050 20826 ft 395 kts 110°
2026-04-30 00:17 9.15075 -80.65430 20406 ft 392 kts 110°
2026-04-30 00:17 9.14193 -80.62833 19981 ft 389 kts 110°
2026-04-30 00:17 9.13316 -80.60250 19554 ft 387 kts 110°
2026-04-30 00:18 9.12443 -80.57683 19138 ft 385 kts 109°
2026-04-30 00:18 9.11586 -80.55163 18728 ft 383 kts 109°
2026-04-30 00:18 9.10711 -80.52591 18296 ft 381 kts 109°
2026-04-30 00:18 9.09861 -80.50092 17839 ft 379 kts 109°
2026-04-30 00:19 9.09008 -80.47582 17395 ft 376 kts 109°
2026-04-30 00:19 9.08170 -80.45118 17221 ft 365 kts 109°
2026-04-30 00:19 9.07354 -80.42721 17052 ft 355 kts 109°
2026-04-30 00:19 9.06558 -80.40385 16891 ft 346 kts 109°
2026-04-30 00:20 9.05858 -80.38088 16605 ft 341 kts 104°
2026-04-30 00:20 9.05369 -80.35746 16268 ft 338 kts 101°
2026-04-30 00:20 9.04961 -80.33410 15930 ft 336 kts 100°
2026-04-30 00:20 9.04567 -80.31085 15585 ft 334 kts 100°
2026-04-30 00:21 9.04168 -80.28776 15234 ft 332 kts 100°
2026-04-30 00:21 9.03760 -80.26477 14899 ft 331 kts 100°
2026-04-30 00:21 9.03348 -80.24209 14717 ft 324 kts 101°
2026-04-30 00:21 9.02940 -80.21994 14523 ft 317 kts 101°
2026-04-30 00:22 9.02533 -80.19807 14214 ft 316 kts 101°
2026-04-30 00:22 9.02125 -80.17625 13883 ft 316 kts 101°
2026-04-30 00:22 9.01717 -80.15447 13552 ft 314 kts 101°
2026-04-30 00:22 9.01314 -80.13307 13224 ft 313 kts 101°
2026-04-30 00:23 9.00909 -80.11153 12901 ft 311 kts 101°
2026-04-30 00:23 9.00505 -80.09010 12569 ft 309 kts 101°
2026-04-30 00:23 9.00104 -80.06882 12244 ft 307 kts 101°
2026-04-30 00:23 8.99704 -80.04764 11930 ft 306 kts 100°
2026-04-30 00:24 8.99306 -80.02651 11606 ft 305 kts 100°
2026-04-30 00:24 8.98910 -80.00554 11301 ft 303 kts 100°
2026-04-30 00:24 8.98515 -79.98461 11012 ft 301 kts 100°
2026-04-30 00:24 8.98127 -79.96405 10855 ft 294 kts 100°
2026-04-30 00:25 8.97748 -79.94400 10671 ft 288 kts 100°
2026-04-30 00:25 8.97373 -79.92412 10396 ft 286 kts 100°
2026-04-30 00:25 8.97000 -79.90439 10104 ft 286 kts 100°
2026-04-30 00:25 8.96628 -79.88471 9818 ft 285 kts 100°
2026-04-30 00:26 8.96257 -79.86507 9520 ft 283 kts 100°
2026-04-30 00:26 8.95888 -79.84554 9207 ft 282 kts 99°
2026-04-30 00:26 8.95520 -79.82614 8923 ft 281 kts 99°
2026-04-30 00:26 8.95153 -79.80674 8630 ft 279 kts 99°
2026-04-30 00:27 8.94788 -79.78748 8332 ft 278 kts 99°
2026-04-30 00:27 8.94426 -79.76835 8052 ft 277 kts 99°
2026-04-30 00:27 8.94063 -79.74923 7766 ft 276 kts 99°
2026-04-30 00:27 8.93702 -79.73019 7493 ft 275 kts 99°
2026-04-30 00:28 8.93343 -79.71123 7189 ft 274 kts 98°
2026-04-30 00:28 8.92986 -79.69238 6924 ft 272 kts 98°
2026-04-30 00:28 8.92630 -79.67360 6669 ft 270 kts 98°
2026-04-30 00:28 8.92316 -79.65706 6435 ft 269 kts 98°
2026-04-30 00:29 8.91972 -79.63889 6154 ft 270 kts 98°
2026-04-30 00:29 8.91620 -79.62039 5994 ft 263 kts 98°
2026-04-30 00:29 8.91284 -79.60278 5936 ft 247 kts 98°
2026-04-30 00:29 8.90969 -79.58624 5824 ft 231 kts 98°
2026-04-30 00:30 8.90675 -79.57079 5735 ft 216 kts 97°
2026-04-30 00:30 8.90402 -79.55639 5621 ft 202 kts 97°
2026-04-30 00:30 8.90145 -79.54284 5460 ft 192 kts 97°
2026-04-30 00:30 8.89897 -79.52969 5203 ft 189 kts 97°
2026-04-30 00:31 8.89647 -79.51647 4797 ft 195 kts 97°
2026-04-30 00:31 8.89390 -79.50280 4425 ft 201 kts 96°
2026-04-30 00:31 8.89480 -79.48897 4010 ft 196 kts 66°
2026-04-30 00:31 8.90175 -79.47769 3778 ft 186 kts 43°
2026-04-30 00:32 8.91194 -79.47009 3537 ft 180 kts 30°
2026-04-30 00:32 8.92274 -79.46383 3155 ft 178 kts 28°
2026-04-30 00:32 8.93343 -79.45774 2774 ft 177 kts 28°
2026-04-30 00:32 8.94410 -79.45165 2391 ft 173 kts 28°
2026-04-30 00:33 8.95426 -79.44598 2084 ft 163 kts 27°
2026-04-30 00:33 8.96384 -79.44058 1829 ft 151 kts 26°
2026-04-30 00:33 8.97282 -79.43546 1660 ft 147 kts 26°
2026-04-30 00:33 8.98172 -79.43036 1470 ft 146 kts 27°
2026-04-30 00:34 8.99047 -79.42535 1329 ft 145 kts 26°
2026-04-30 00:34 8.99939 -79.42025 1129 ft 145 kts 27°
2026-04-30 00:34 9.00833 -79.41512 945 ft 151 kts 27°
2026-04-30 00:34 9.01764 -79.40979 733 ft 158 kts 29°
2026-04-30 00:35 9.02721 -79.40430 542 ft 156 kts 27°
2026-04-30 00:35 9.03664 -79.39893 307 ft 154 kts 26°
2026-04-30 00:35 9.04589 -79.39364 192 ft 153 kts 28°
2026-04-30 00:35 9.05485 -79.38850 145 ft 139 kts 28°
2026-04-30 00:36 9.06157 -79.38468 144 ft 94 kts 28°
2026-04-30 00:36 9.06416 -79.38376 142 ft 17 kts 358°
2026-04-30 00:36 9.06516 -79.38377 142 ft 11 kts 359°
2026-04-30 00:36 9.06571 -79.38377 142 ft 7 kts
2026-04-30 00:37 9.06620 -79.38382 142 ft 7 kts 338°
2026-04-30 00:37 9.06652 -79.38416 142 ft 7 kts 303°
2026-04-30 00:37 9.06689 -79.38439 143 ft 7 kts
2026-04-30 00:37 9.06725 -79.38424 143 ft 3 kts 27°
2026-04-30 00:38 9.06744 -79.38414 143 ft 3 kts 27°
2026-04-30 00:38 9.06759 -79.38407 143 ft 0 kts 26°
2026-04-30 00:39 9.06762 -79.38405 143 ft 0 kts 26°
2026-04-30 00:39 9.06765 -79.38404 143 ft 1 kts 26°
2026-04-30 00:39 9.06768 -79.38402 143 ft 0 kts 26°
2026-04-30 00:39 9.06771 -79.38401 143 ft 2 kts 26°
2026-04-30 00:40 9.06791 -79.38391 143 ft 2 kts 26°
2026-04-30 00:40 9.06802 -79.38385 143 ft 0 kts 24°
2026-04-30 00:43 9.06812 -79.38381 143 ft 9 kts 23°
2026-04-30 00:43 9.06842 -79.38383 143 ft 10 kts 279°
2026-04-30 00:44 9.06835 -79.38432 143 ft 7 kts 260°
2026-04-30 00:44 9.06827 -79.38468 143 ft 0 kts 256°